Regional Weather Roundup
Issued by NWS Newport/Morehead, NC

Current Version | Previous Version | Graphics & Text | Print | Product List | Glossary Off
Versions: 1 2 3 4 5 6 7 8 9 10 11 12 13 14 15 16 17 18 19 20 21 22 23 24 25 26 27 28 29 30 31 32 33 34 35 36 37 38 39 40 41 42 43 44 45 46 47 48 49 50

000
ASUS42 KMHX 230810
RWRMHX
WEATHER ROUNDUP FOR EASTERN NORTH CAROLINA
NATIONAL WEATHER SERVICE NEWPORT/MOREHEAD CITY NC
400 AM EDT TUE SEP 23 2014

NOTE: "FAIR" INDICATES FEW OR NO CLOUDS BELOW 12,000 FEET
WITH NO SIGNIFICANT WEATHER AND/OR OBSTRUCTIONS TO VISIBILITY

NCZ015>017-031-032-045>047-102-103-230900-
NORTH COAST

CITY           SKY/WX    TMP DP  RH WIND       PRES   REMARKS
EDENTON        CLOUDY    62  56  83 NE6       30.18R
ELIZABETH CITY CLOUDY    64  55  72 N13       30.18S
KITTY HAWK     CLOUDY    69  54  60 NE12G20   30.15R
MANTEO         CLOUDY    68  55  62 NE16      30.16S

$$

NCZ045>047-081-094-103-104-230900-
CENTRAL COAST

CITY           SKY/WX    TMP DP  RH WIND       PRES   REMARKS
FRISCO         CLOUDY    68  58  70 NE9G20    30.13S
SWANQUARTER      N/A     66 N/A N/A NE3G10    30.12R

$$

NCZ095-097-098-100-101-230900-
SOUTHERN COAST

CITY           SKY/WX    TMP DP  RH WIND       PRES   REMARKS
BEAUFORT       CLOUDY    70  62  76 NE10      30.11S
CEDAR ISLAND     N/A     72 N/A N/A NE18G25   30.18R
JACKSONVILLE   CLOUDY    68  61  78 NE9       30.12R
NEWPORT        NOT AVBL
PINEY ISLAND   CLOUDY    74  61  63 NE17G25   30.13R
WILMINGTON     CLOUDY    66  63  90 N6        30.10R


$$

NCZ011>013-027>030-043-044-078>080-089-090>093-098-230900-
COASTAL PLAIN

CITY           SKY/WX    TMP DP  RH WIND       PRES   REMARKS
AHOSKIE        CLOUDY    60  49  68 N10G16    30.20R
CLINTON        CLOUDY    66  60  78 NE6       30.13S
ELIZABETHTOWN  CLOUDY    65  58  78 CALM      30.11F
GOLDSBORO      CLOUDY    65  63  95 NE5       30.13S
GREENVILLE     CLOUDY    63  59  88 N8        30.17S
HAVELOCK       CLOUDY    70  60  70 NE9       30.14R
KENANSVILLE    CLOUDY    64  57  77 CALM      30.14S
KINSTON        CLOUDY    64  60  85 N6        30.16R
NEW BERN       CLOUDY    68  61  78 NE7       30.15S
RICHLANDS      CLOUDY    64  59  82 NE9       30.13S
ROANOKE RAPIDS NOT AVBL
ROCKY MOUNT    CLOUDY    63  52  67 NE13      30.17S
WASHINGTON     CLOUDY    63  58  86 NE5       30.16S
WHITEVILLE     CLOUDY    65  59  81 CALM      30.10F

$$

AMZ130-135-150-152-154-156-158-170-250-252-270-ANZ085-086-088-633-658-670-230900-
MARINE OBSERVATIONS

STATION/POSITION TIME  TEMP    WIND        PRES    WAVE   SWELL
                       AIR SEA DIR/SP/G            HT/PER HT/PER
                 (UTC) (F)     (DEG/KT/KT) (MB)    (FT/S) (FT/S)
CHESAPEAKE LIGHT 0700   66      20/ 23/ 26 1022.1
BUOY 44014       0800   70 75   10/ 17/ 21 1020.7    4/ 5   2/ 8
DUCK             0800   70 74   30/ 19/ 23 1020.6
2E DUCK          0700                        N/A     4/ 5
OREGON INLET     0800   70 75   30/ 16/ 21 1020.5
BUOY 44095       0800      74                N/A     4/ 5
20E OREGON INLET NOT AVBL
HATTERAS CG      NOT AVBL
DIAMOND BUOY     0800   73      20/ 17/ 21 1019.6    4/ 5   2/12
CAPE LOOKOUT     0800   73      40/ 21/ 24 1019.3
BEAUFORT LAB     0800   70 76   40/  7/ 11 1019.2
30 SE NEW RIVER  0800   76 82   40/ 19/ 23 1017.8    4/ 4   2/ 7
5 SE WRIGHTSVILL 0700   70 79   20/ 14/ 17   N/A
BUOY 41002       0736   79 81   70/  4/  6 1017.8    3/ 7   3/ 7
BUOY 41004       0800   75 81  360/ 25/ 31 1015.0    4/ 5   2/ 7

$$


USA.gov is the U.S. government's official web portal to all federal, state and local government web resources and services.